Terminal Aerodrome Forecast
Issued by NWS

Home | Current Version | Previous Version | Text Only | Print | Product List | Glossary On
Versions: 1 2 3 4 5 6 7 8 9 10 11 12 13 14
000
FTUS44 KEPZ 202300
TAFLRU
TAF
KLRU 202338Z 2100/2124 13011KT P6SM VCTS SCT050CB BKN100
      TEMPO 2100/2102 3SM TSRA BKN040CB
     FM210300 08008KT P6SM SCT040 BKN080
     FM211200 11007KT P6SM SCT050 BKN120
     FM211900 13010KT P6SM VCTS SCT040CB BKN100=

USA.gov is the U.S. government's official web portal to all federal, state and local government web resources and services.